Weather History for Monarch Pass, CO

Change the Weather History Date:

Wednesday, September 11, 2013

  Actual Average (KGUC) Record (KGUC)
Temperature  
Mean Temperature 44 °F -  
Max Temperature 46 °F 68 °F 78 °F (1998)
Min Temperature 41 °F 35 °F 26 °F (2001)
Degree Days  
Heating Degree Days 22    
Moisture  
Dew Point 42 °F    
Average Humidity 96    
Maximum Humidity 100    
Minimum Humidity 93    
Precipitation  
Precipitation 0.00 in - - ()
Sea Level Pressure  
Sea Level Pressure 30.68 in    
Wind  
Wind Speed 11 mph (ENE)    
Max Wind Speed 18 mph    
Max Gust Speed 22 mph    
Visibility 1 miles    
Events Fog , Rain , Thunderstorm    
Averages and records for this station are not official NWS values.
T = Trace of Precipitation, MM = Missing Value Source: NWS Daily Summary

Daily Weather History Graph

Daily Weather History Graph

Search for Another Location

Airport:

Trip Planner

Search our weather history database for the weather conditions in past years. The results will help you decide how hot, cold, wet, or windy it might be!

Date:

Astronomy

Sep. 11, 2013 Rise Set
Actual Time 6:43 AM MDT 7:19 PM MDT
Civil Twilight 6:16 AM MDT 7:45 PM MDT
Nautical Twilight 5:45 AM MDT 8:17 PM MDT
Astronomical Twilight 5:13 AM MDT 8:49 PM MDT
Moon 1:09 PM MDT (9/11) 11:22 PM MDT (9/11)
Length of Visible Light 13h 28m
Length of Day
12h 35m
Waxing Crescent, 39% of the Moon is Illuminated
Sep 11
Waxing Crescent
Sep 12
First Quarter
Sep 19
Full
Sep 26
Last Quarter
Oct 4
New

Hourly Weather History & Observations

Time (MDT) Temp. Windchill Dew Point Humidity Pressure Visibility Wind Dir Wind Speed Gust Speed Precip Events Conditions
12:09 AM 41.0 °F 33.9 °F 41.0 °F 100% 30.67 in 0.2 mi SE 12.7 mph 19.6 mph N/A Fog Fog
12:29 AM 41.0 °F 33.9 °F 41.0 °F 100% 30.66 in 10.0 mi ESE 12.7 mph 19.6 mph N/A   Overcast
12:49 AM 41.0 °F 33.1 °F 41.0 °F 100% 30.65 in 0.2 mi East 15.0 mph - N/A   Unknown
1:09 AM 41.0 °F 38.0 °F 41.0 °F 100% 30.67 in 0.2 mi ESE 4.6 mph - N/A Fog Fog
1:29 AM 41.0 °F 35.2 °F 41.0 °F 100% 30.66 in 0.2 mi ENE 9.2 mph - N/A Fog Fog
1:49 AM 41.0 °F 34.7 °F 41.0 °F 100% 30.66 in 0.2 mi East 10.4 mph - N/A Fog Fog
2:09 AM 41.0 °F 36.4 °F 41.0 °F 100% 30.67 in 0.2 mi East 6.9 mph - N/A Fog Fog
2:29 AM 41.0 °F 35.2 °F 41.0 °F 100% 30.66 in 0.2 mi ENE 9.2 mph - N/A Fog Fog
2:49 AM 41.0 °F 34.7 °F 41.0 °F 100% 30.66 in 0.2 mi ENE 10.4 mph - N/A Fog Fog
3:09 AM 41.0 °F 37.1 °F 41.0 °F 100% 30.66 in 0.2 mi ENE 5.8 mph - N/A Fog Fog
3:29 AM 41.0 °F 37.1 °F 41.0 °F 100% 30.65 in 0.2 mi East 5.8 mph - N/A Fog Fog
3:49 AM 41.0 °F 37.1 °F 41.0 °F 100% 30.65 in 0.2 mi East 5.8 mph - N/A Fog Fog
4:09 AM 42.8 °F 39.3 °F 41.0 °F 93% 30.65 in 0.2 mi East 5.8 mph - N/A Fog Fog
4:29 AM 42.8 °F 39.3 °F 41.0 °F 93% 30.65 in 0.2 mi ENE 5.8 mph - N/A Fog Fog
4:49 AM 42.8 °F 37.5 °F 41.0 °F 93% 30.65 in 0.2 mi ENE 9.2 mph - N/A Fog Fog
5:09 AM 41.0 °F 37.1 °F 41.0 °F 100% 30.65 in 0.2 mi ENE 5.8 mph - N/A Fog Fog
5:29 AM 41.0 °F 36.4 °F 41.0 °F 100% 30.65 in 0.2 mi ENE 6.9 mph - N/A Fog Fog
5:49 AM 41.0 °F 34.7 °F 41.0 °F 100% 30.65 in 0.2 mi East 10.4 mph - N/A Fog Fog
6:09 AM 42.8 °F 36.6 °F 41.0 °F 93% 30.65 in 0.2 mi ENE 11.5 mph - N/A   Unknown
6:29 AM 42.8 °F 37.0 °F 41.0 °F 93% 30.65 in 0.2 mi ENE 10.4 mph - N/A Rain Light Rain
6:49 AM 42.8 °F 35.8 °F 41.0 °F 93% 30.65 in 0.2 mi ENE 13.8 mph - N/A Rain Light Rain
7:09 AM 42.8 °F 35.8 °F 41.0 °F 93% 30.66 in 0.2 mi ENE 13.8 mph - N/A   Unknown
7:29 AM 42.8 °F 36.2 °F 41.0 °F 93% 30.66 in 0.2 mi ENE 12.7 mph 16.1 mph N/A Rain Light Rain
7:49 AM 42.8 °F 36.6 °F 41.0 °F 93% 30.66 in 0.2 mi ENE 11.5 mph - N/A Rain Light Rain
8:09 AM 42.8 °F 36.2 °F 41.0 °F 93% 30.66 in 0.2 mi ENE 12.7 mph - N/A Rain Light Rain
8:29 AM 41.0 °F 32.2 °F 41.0 °F 100% 30.66 in 0.2 mi ENE 18.4 mph - N/A Rain Light Rain
8:49 AM 41.0 °F 32.8 °F 41.0 °F 100% 30.66 in 0.2 mi ENE 16.1 mph 20.7 mph N/A Fog Fog
9:09 AM 41.0 °F 34.3 °F 41.0 °F 100% 30.68 in 0.2 mi ENE 11.5 mph - N/A Fog Fog
9:29 AM 42.8 °F 38.0 °F 41.0 °F 93% 30.68 in 0.2 mi East 8.1 mph - N/A Fog Fog
9:49 AM 42.8 °F 37.0 °F 41.0 °F 93% 30.69 in 0.2 mi ENE 10.4 mph - N/A Fog Fog
10:09 AM 42.8 °F 38.0 °F 42.8 °F 100% 30.69 in 0.2 mi ENE 8.1 mph - N/A Fog Fog
10:29 AM 42.8 °F 37.0 °F 42.8 °F 100% 30.69 in 0.2 mi East 10.4 mph - N/A Fog Fog
10:49 AM 42.8 °F 37.5 °F 42.8 °F 100% 30.69 in 0.2 mi East 9.2 mph - N/A Fog Fog
11:09 AM 44.6 °F 40.2 °F 42.8 °F 93% 30.69 in 0.2 mi East 8.1 mph - N/A Fog Fog
11:29 AM 44.6 °F 39.7 °F 42.8 °F 93% 30.69 in 0.2 mi ENE 9.2 mph - N/A Fog Fog
11:49 AM 44.6 °F 41.4 °F 42.8 °F 93% 30.70 in 0.2 mi East 5.8 mph - N/A Fog Fog
12:09 PM 44.6 °F 43.1 °F 42.8 °F 93% 30.70 in 0.2 mi East 3.5 mph - N/A Rain Light Rain
12:29 PM 44.6 °F 42.2 °F 42.8 °F 93% 30.69 in 0.2 mi ENE 4.6 mph - N/A Fog Fog
12:49 PM 44.6 °F 40.2 °F 44.6 °F 100% 30.69 in 0.2 mi ENE 8.1 mph - N/A Fog Fog
1:09 PM 44.6 °F 39.2 °F 44.6 °F 100% 30.69 in 0.2 mi East 10.4 mph - N/A Fog Fog
1:29 PM 46.4 °F 41.9 °F 44.6 °F 93% 30.68 in 0.2 mi ENE 9.2 mph - N/A Fog Fog
1:49 PM 44.6 °F 38.4 °F 44.6 °F 100% 30.68 in 0.2 mi ENE 12.7 mph - N/A Fog Fog
2:09 PM 44.6 °F 38.4 °F 44.6 °F 100% 30.68 in 0.2 mi East 12.7 mph - N/A Fog Fog
2:29 PM 46.4 °F 39.8 °F 44.6 °F 93% 30.67 in 0.2 mi ENE 16.1 mph - N/A Fog Fog
2:49 PM 46.4 °F 39.5 °F 44.6 °F 93% 30.66 in 0.2 mi ENE 17.3 mph - N/A Fog Fog
3:09 PM 46.4 °F 39.8 °F 44.6 °F 93% 30.66 in 0.2 mi ENE 16.1 mph - N/A Fog Fog
3:29 PM 46.4 °F 39.8 °F 44.6 °F 93% 30.67 in 0.2 mi East 16.1 mph 20.7 mph N/A Fog Fog
3:49 PM 44.6 °F 38.4 °F 44.6 °F 100% 30.67 in 0.2 mi NE 12.7 mph - N/A   Overcast
4:09 PM 44.6 °F 40.2 °F 42.8 °F 93% 30.68 in 0.2 mi ENE 8.1 mph - N/A Rain , Thunderstorm Rain
4:29 PM 44.6 °F 37.8 °F 42.8 °F 93% 30.67 in 0.2 mi ENE 15.0 mph - N/A Rain Light Rain
4:49 PM 42.8 °F 35.1 °F 41.0 °F 93% 30.67 in 7.0 mi ENE 16.1 mph 21.9 mph N/A Rain , Thunderstorm Light Thunderstorms and Rain
5:09 PM 42.8 °F 38.0 °F 42.8 °F 100% 30.68 in 10.0 mi ENE 8.1 mph - N/A   Scattered Clouds
5:29 PM 42.8 °F 38.0 °F 42.8 °F 100% 30.68 in 1.5 mi ENE 8.1 mph - N/A   Mostly Cloudy
5:49 PM 42.8 °F 38.0 °F 41.0 °F 93% 30.68 in 10.0 mi ENE 8.1 mph - N/A   Scattered Clouds
6:09 PM 42.8 °F 38.0 °F 42.8 °F 100% 30.67 in 10.0 mi East 8.1 mph - N/A   Clear
6:29 PM 44.6 °F 39.2 °F 42.8 °F 93% 30.67 in 10.0 mi East 10.4 mph - N/A   Scattered Clouds
6:49 PM 44.6 °F 39.2 °F 42.8 °F 93% 30.67 in 7.0 mi ENE 10.4 mph - N/A   Mostly Cloudy
7:09 PM 44.6 °F 38.8 °F 42.8 °F 93% 30.67 in 0.2 mi ENE 11.5 mph - N/A Fog Fog
7:29 PM 44.6 °F 38.8 °F 42.8 °F 93% 30.68 in 0.2 mi ENE 11.5 mph - N/A Fog Fog
7:49 PM 44.6 °F 38.4 °F 42.8 °F 93% 30.69 in 0.2 mi ENE 12.7 mph - N/A Fog Fog
8:09 PM 44.6 °F 38.4 °F 42.8 °F 93% 30.70 in 0.2 mi ENE 12.7 mph - N/A   Unknown
8:29 PM 44.6 °F 37.2 °F 42.8 °F 93% 30.70 in 0.2 mi ENE 17.3 mph - N/A Fog Fog
8:49 PM 44.6 °F 37.8 °F 42.8 °F 93% 30.71 in 0.2 mi ENE 15.0 mph - N/A Fog Fog
9:09 PM 44.6 °F 37.8 °F 42.8 °F 93% 30.70 in 0.2 mi ENE 15.0 mph - N/A   Unknown
9:29 PM 44.6 °F 38.1 °F 42.8 °F 93% 30.71 in 0.2 mi ENE 13.8 mph - N/A   Unknown
9:49 PM 42.8 °F 35.4 °F 42.8 °F 100% 30.71 in 0.2 mi ENE 15.0 mph - N/A   Unknown
10:09 PM 42.8 °F 37.0 °F 42.8 °F 100% 30.71 in 0.2 mi ENE 10.4 mph - N/A Fog Fog
10:29 PM 42.8 °F 37.5 °F 42.8 °F 100% 30.71 in 0.2 mi ENE 9.2 mph - N/A Fog Fog
10:49 PM 44.6 °F 38.8 °F 42.8 °F 93% 30.71 in 0.2 mi ENE 11.5 mph - N/A Fog Fog
11:09 PM 44.6 °F 38.8 °F 42.8 °F 93% 30.71 in 0.2 mi ENE 11.5 mph - N/A Fog Fog
11:29 PM 42.8 °F 36.6 °F 42.8 °F 100% 30.71 in 0.2 mi East 11.5 mph - N/A Fog Fog
11:49 PM 44.6 °F 39.7 °F 42.8 °F 93% 30.71 in 0.2 mi ENE 9.2 mph - N/A Fog Fog